This demonstration page uses our WeatherBlox Daily Observations layout. Learn more.

Left ArrowRight Arrow

Hourly Observations for March 1, 2018

Temp ( °F °C ) Dew Point ( °F °C ) Humidity (%) Winds ( mph kmh ) Pressure ( in mb ) Visibility ( mi km ) Precip ( " mm )
12:15 am 00:15 Clear 50 10 43 6 76 76 N N/A 29.91 1013 10 16 N/A
12:35 am 00:35 Clear 50 10 43 6 76 76 N N/A 29.91 1013 10 16 N/A
12:55 am 00:55 Clear 50 10 43 6 76 76 N N/A 29.91 1013 10 16 N/A
1:15 am 01:15 Clear 50 10 43 6 76 76 N N/A 29.91 1013 10 16 N/A
1:35 am 01:35 Clear 48 9 43 6 82 82 N N/A 29.91 1013 10 16 N/A
1:55 am 01:55 Clear 46 8 43 6 87 87 N N/A 29.94 1014 10 16 N/A
2:15 am 02:15 Clear 46 8 43 6 87 87 N N/A 29.91 1013 10 16 N/A
2:35 am 02:35 Clear 45 7 43 6 93 93 N N/A 29.91 1013 10 16 N/A
2:55 am 02:55 Clear 45 7 43 6 93 93 N N/A 29.91 1013 10 16 N/A
3:15 am 03:15 Clear 45 7 43 6 93 93 N N/A 29.88 1012 10 16 N/A
3:35 am 03:35 Clear 46 8 43 6 87 87 N N/A 29.88 1012 10 16 N/A
3:55 am 03:55 Clear 45 7 43 6 93 93 N N/A 29.88 1012 10 16 N/A
4:15 am 04:15 Clear 45 7 43 6 93 93 N N/A 29.88 1012 10 16 N/A
4:35 am 04:35 Clear 45 7 43 6 93 93 N N/A 29.91 1013 10 16 N/A
4:55 am 04:55 Clear 43 6 43 6 100 100 N N/A 29.91 1013 10 16 N/A
5:15 am 05:15 Clear 45 7 43 6 93 93 N N/A 29.91 1013 10 16 N/A
5:35 am 05:35 Clear 45 7 43 6 93 93 N N/A 29.91 1013 10 16 N/A
5:55 am 05:55 Clear 45 7 43 6 93 93 N N/A 29.85 1011 10 16 N/A
6:15 am 06:15 Clear 45 7 43 6 93 93 N N/A 29.88 1012 10 16 N/A
6:35 am 06:35 Clear 45 7 43 6 93 93 N N/A 29.91 1013 10 16 N/A
6:55 am 06:55 Sunny 45 7 43 6 93 93 N N/A 29.88 1012 10 16 N/A
7:15 am 07:15 Mostly Cloudy 45 7 43 6 93 93 WSW 3 6 29.88 1012 10 16 N/A
7:35 am 07:35 Cloudy 45 7 43 6 93 93 N N/A 29.88 1012 10 16 N/A
7:55 am 07:55 Cloudy 46 8 45 7 93 93 N N/A 29.83 1010 10 16 N/A
8:15 am 08:15 Cloudy 46 8 45 7 93 93 N N/A 29.83 1010 10 16 N/A
8:35 am 08:35 Cloudy 46 8 45 7 93 93 N N/A 29.83 1010 10 16 N/A
8:55 am 08:55 Cloudy 48 9 45 7 87 87 N N/A 29.83 1010 10 16 N/A
9:15 am 09:15 Cloudy 48 9 45 7 87 87 N N/A 29.83 1010 10 16 N/A
9:35 am 09:35 Cloudy with Light Rain 50 10 46 8 88 88 N N/A 29.85 1011 10 16 N/A
9:55 am 09:55 Cloudy with Light Rain 50 10 46 8 88 88 N N/A 29.83 1010 10 16 N/A
10:15 am 10:15 Cloudy with Light Rain 50 10 48 9 94 94 NE 3 6 29.83 1010 10 16 N/A
10:35 am 10:35 Cloudy with Drizzle 50 10 46 8 88 88 N N/A 29.83 1010 10 16 N/A
10:55 am 10:55 Cloudy with Drizzle 48 9 46 8 94 94 N N/A 29.83 1010 10 16 N/A
11:15 am 11:15 Cloudy with Drizzle 50 10 46 8 88 88 N N/A 29.83 1010 10 16 N/A
11:35 am 11:35 Cloudy with Light Rain 50 10 48 9 94 94 NE 3 6 29.83 1010 10 16 N/A
11:55 am 11:55 Cloudy 50 10 48 9 94 94 NE 5 7 29.80 1009 10 16 N/A
12:15 pm 12:15 Cloudy 52 11 48 9 88 88 NE 3 6 29.80 1009 10 16 N/A
12:35 pm 12:35 Cloudy 52 11 48 9 88 88 NE 6 9 29.77 1008 10 16 N/A
12:55 pm 12:55 Cloudy 52 11 48 9 88 88 SE 5 7 29.74 1007 10 16 N/A
1:15 pm 13:15 Cloudy 54 12 48 9 82 82 ENE 5 7 29.74 1007 10 16 N/A
1:35 pm 13:35 Cloudy 54 12 48 9 82 82 ENE 3 6 29.74 1007 10 16 N/A
1:55 pm 13:55 Cloudy 54 12 50 10 88 88 ESE 6 9 29.71 1006 10 16 N/A
2:15 pm 14:15 Cloudy 54 12 50 10 88 88 ESE 6 9 29.71 1006 10 16 N/A
2:35 pm 14:35 Cloudy 54 12 50 10 88 88 N N/A 29.71 1006 10 16 N/A
2:55 pm 14:55 Cloudy 55 13 50 10 82 82 SE 8 13 29.68 1005 10 16 N/A
3:15 pm 15:15 Cloudy 55 13 50 10 82 82 ESE 5 7 29.68 1005 10 16 N/A
3:35 pm 15:35 Cloudy 55 13 48 9 77 77 SE 9 15 29.62 1003 10 16 N/A
3:55 pm 15:55 Cloudy 55 13 48 9 77 77 SE 10 17 29.62 1003 10 16 N/A
4:15 pm 16:15 Cloudy 55 13 48 9 77 77 SSE 8 13 29.62 1003 10 16 N/A
4:35 pm 16:35 Cloudy 54 12 48 9 82 82 SSE 6 9 29.62 1003 10 16 N/A
4:55 pm 16:55 Cloudy 54 12 48 9 82 82 S 8 13 29.62 1003 10 16 N/A
5:15 pm 17:15 Cloudy 54 12 48 9 82 82 SSE 9 15 29.62 1003 10 16 N/A
5:35 pm 17:35 Cloudy 54 12 48 9 82 82 S 9 15 29.59 1002 10 16 N/A
5:55 pm 17:55 Cloudy 54 12 48 9 82 82 S 9 15 29.59 1002 10 16 N/A
6:15 pm 18:15 Cloudy 54 12 48 9 82 82 SSE 9 15 29.59 1002 10 16 N/A
6:35 pm 18:35 Cloudy with Light Rain 52 11 50 10 94 94 S 10 17 29.59 1002 10 16 N/A
6:55 pm 18:55 Clear 55 13 41 5 59 59 SSW 8 13 29.94 1014 10 16 N/A
7:15 pm 19:15 Cloudy with Rain 50 10 50 10 100 100 SSE 7 11 29.56 1001 5 8 N/A
7:35 pm 19:35 Cloudy with Rain 50 10 50 10 100 100 SSE 5 7 29.56 1001 5 8 N/A
7:55 pm 19:55 Cloudy with Light Rain 48 9 48 9 100 100 SSW 5 7 29.56 1001 5 8 N/A
8:15 pm 20:15 Cloudy with Rain 48 9 48 9 100 100 S 6 9 29.56 1001 4 6 N/A
8:35 pm 20:35 Cloudy with Light Rain 46 8 46 8 100 100 S 7 11 29.53 1000 5 8 N/A
8:55 pm 20:55 Cloudy with Light Rain 46 8 46 8 100 100 S 9 15 29.50 999 7 11 N/A
9:15 pm 21:15 Cloudy 46 8 46 8 100 100 S 6 9 29.50 999 7 11 N/A
9:35 pm 21:35 Cloudy with Mist and Fog 46 8 46 8 100 100 S 3 6 29.47 998 4 6 N/A
9:55 pm 21:55 Cloudy with Mist and Fog 46 8 46 8 100 100 SSW 3 6 29.47 998 2 3 N/A
10:15 pm 22:15 Cloudy with Mist and Fog 46 8 46 8 100 100 N N/A 29.47 998 1 2 N/A
10:35 pm 22:35 Cloudy with Mist and Fog 46 8 46 8 100 100 N N/A 29.44 997 1 1 N/A
10:55 pm 22:55 Cloudy with Mist and Fog 46 8 46 8 100 100 N N/A 29.44 997 1 1 N/A
11:15 pm 23:15 Cloudy with Fog 46 8 46 8 100 100 WSW 5 7 29.44 997 1 1 N/A
11:35 pm 23:35 Cloudy with Mist and Fog 46 8 46 8 100 100 W 14 22 29.47 998 1 2 N/A
11:55 pm 23:55 Cloudy 46 8 43 6 87 87 WNW 23 37 29.47 998 10 16 N/A

Powered by AerisWeather